Home > Weather > Konstanz > Past weeks

Flag for Germany Weather for the Past 2 Weeks in Konstanz, Baden-Württemberg, Germany

Now
32 °F

Passing clouds.


Feels Like: 32 °F
Forecast: 31 / 48 °F
Wind: 2 mph from North

Location: Friedrichshafen Airport

Current Time: Feb 6, 2016 at 2:00:23 AM

Latest Report: Feb 6, 2016 at 12:50 AM


Visibility: 3 mi

Pressure: 30.24 "Hg

Humidity: 93%

Dew point: 30 °F

Location of KonstanzLocation

Historic Weather in Konstanz — Graph

°F

Konstanz Temperature Yesterday

Maximum temperature yesterday: 46 °F (at 2:20 PM)
Minimum temperature yesterday: 32 °F (at 11:20 PM)
Average temperature yesterday: 40 °F

High & Low Weather Summary for the Past Weeks

 TemperatureHumidityPressure
High55 °F (Feb 1, 1:50 PM)93% (Jan 22, 8:20 PM)30.66 "Hg (Jan 22, 8:20 PM)
Low19 °F (Jan 22, 9:20 PM)50% (Jan 25, 3:20 PM)29.95 "Hg (Jan 31, 3:20 PM)
Average39 °F80%30.32 "Hg
* Reported Jan 22 12:50 AM — Feb 6 12:20 AM, Konstanz, Weather by CustomWeather, © 2016

Note: Actual official high and low records may vary slightly from our data, if they occured in-between our weather recording intervals... More about our weather records

Advertising

Konstanz Weather History for the Previous 24 Hours

 ConditionsComfort  
Time TempWeatherWind HumidityBarometerVisibility
12:20 AM
Sat, Feb 6
30 °FChilly.2 mph93%30.24 "Hg1 mi
11:55 PM
Fri, Feb 5
32 °FIce fog.2 mph87%30.24 "Hg2 mi
11:20 PM32 °FChilly.2 mph87%30.24 "Hg1 mi
10:50 PM34 °FChilly.1 mph87%30.24 "Hg1 mi
10:20 PM34 °FChilly.2 mph93%30.24 "Hg1 mi
9:50 PM37 °FChilly.6 mph87%30.24 "HgN/A
9:20 PM37 °FClear.5 mph93%30.27 "Hg4 mi
8:50 PM34 °FClear.2 mph93%30.27 "Hg4 mi
8:20 PM36 °FClear.2 mph93%30.27 "Hg10 mi
7:50 PM36 °FClear.5 mph93%30.27 "Hg10 mi
7:20 PM36 °FClear.2 mph87%30.30 "Hg10 mi
6:50 PM37 °FClear.1 mph87%30.30 "Hg10 mi
6:20 PM41 °FClear.3 mph81%30.30 "Hg10 mi
5:50 PM43 °FClear.2 mph76%30.30 "Hg10 mi
5:20 PM45 °FPassing clouds.No wind76%30.30 "HgN/A
4:50 PM46 °FPassing clouds.3 mph66%30.30 "HgN/A
4:20 PM46 °FPassing clouds.3 mph71%30.30 "HgN/A
3:50 PM46 °FScattered clouds.5 mph71%30.33 "HgN/A
3:20 PM46 °FPartly sunny.3 mph71%30.33 "HgN/A
2:50 PM46 °FPartly sunny.5 mph71%30.33 "HgN/A
2:20 PM46 °FBroken clouds.6 mph71%30.36 "HgN/A
1:50 PM45 °FPartly sunny.5 mph76%30.36 "HgN/A
1:20 PM45 °FOvercast.5 mph76%30.36 "HgN/A
12:50 PM43 °FMostly cloudy.6 mph81%30.39 "HgN/A
12:20 PM43 °FMore clouds than sun.3 mph81%30.39 "HgN/A
11:50 AM43 °FMore clouds than sun.3 mph81%30.39 "HgN/A
11:20 AM43 °FMore clouds than sun.2 mph81%30.42 "HgN/A
10:50 AM43 °FLow clouds.5 mph81%30.42 "HgN/A
10:20 AM43 °FLow clouds.5 mph81%30.42 "HgN/A
9:50 AM41 °FLow clouds.2 mph87%30.39 "HgN/A
9:20 AM41 °FLow clouds.3 mph87%30.39 "HgN/A
8:50 AM41 °FLow clouds.No wind87%30.39 "HgN/A
8:20 AM41 °FLow clouds.1 mph87%30.39 "HgN/A
7:50 AM41 °FLow clouds.5 mph81%30.39 "HgN/A
7:20 AM41 °FLow clouds.6 mph81%30.39 "HgN/A
6:50 AM41 °FMostly cloudy.3 mph81%30.39 "HgN/A
6:20 AM39 °FMostly cloudy.2 mph87%30.39 "HgN/A
5:50 AM39 °FOvercast.1 mph87%30.39 "HgN/A
5:20 AM41 °FOvercast.5 mph81%30.39 "HgN/A
4:55 AM41 °FMostly cloudy.5 mph81%30.36 "HgN/A
4:20 AM41 °FOvercast.8 mph81%30.36 "HgN/A
3:50 AM39 °FLow clouds.9 mph87%30.36 "HgN/A
3:20 AM39 °FMostly cloudy.7 mph87%30.36 "HgN/A
2:57 AM39 °FDrizzle. Mostly cloudy.6 mph87%30.36 "HgN/A
2:20 AM39 °FDrizzle. Mostly cloudy.8 mph87%30.36 "HgN/A
2:01 AM39 °FDrizzle. Mostly cloudy.8 mph87%30.33 "HgN/A
Weather by CustomWeather, © 2016

See weather overviewHow to use our weather pages